TimeEDT,TemperatureF,Dew PointF,Humidity,Sea Level PressureIn,VisibilityMPH,Wind Direction,Wind SpeedMPH,Gust SpeedMPH,PrecipitationIn,Events,Conditions,WindDirDegrees,DateUTC
12:53 AM,63.0,55.0,75,30.27,10.0,ESE,6.9,-,N/A,,Clear,110,2013-08-25 04:53:00
1:53 AM,62.1,55.0,78,30.27,10.0,ESE,4.6,-,N/A,,Clear,110,2013-08-25 05:53:00
2:53 AM,60.1,55.0,83,30.26,10.0,SE,3.5,-,N/A,,Clear,130,2013-08-25 06:53:00
3:53 AM,60.1,55.0,83,30.27,10.0,ESE,3.5,-,N/A,,Clear,120,2013-08-25 07:53:00
4:53 AM,60.1,55.0,83,30.27,10.0,SSE,5.8,-,N/A,,Clear,150,2013-08-25 08:53:00
5:53 AM,61.0,55.0,81,30.28,10.0,SSE,6.9,-,N/A,,Clear,150,2013-08-25 09:53:00
6:53 AM,59.0,55.0,87,30.30,10.0,SSE,5.8,-,N/A,,Clear,150,2013-08-25 10:53:00
7:53 AM,61.0,55.9,83,30.31,10.0,SSE,5.8,-,N/A,,Clear,160,2013-08-25 11:53:00
8:53 AM,66.9,61.0,81,30.30,10.0,South,8.1,-,N/A,,Clear,170,2013-08-25 12:53:00
9:53 AM,73.9,63.0,68,30.30,10.0,SSW,10.4,-,N/A,,Clear,200,2013-08-25 13:53:00
10:53 AM,78.1,63.0,60,30.30,10.0,SSW,12.7,-,N/A,,Clear,210,2013-08-25 14:53:00
11:53 AM,80.1,63.0,56,30.30,10.0,SW,6.9,-,N/A,,Clear,220,2013-08-25 15:53:00
12:53 PM,81.0,62.1,52,30.29,10.0,WSW,8.1,-,N/A,,Clear,240,2013-08-25 16:53:00
1:53 PM,82.9,59.0,44,30.27,10.0,SW,9.2,-,N/A,,Clear,220,2013-08-25 17:53:00
2:53 PM,84.0,59.0,43,30.25,10.0,SW,9.2,-,N/A,,Clear,230,2013-08-25 18:53:00
3:53 PM,84.0,59.0,43,30.23,10.0,WSW,10.4,-,N/A,,Clear,250,2013-08-25 19:53:00
4:53 PM,84.0,57.9,41,30.21,10.0,Calm,Calm,-,N/A,,Clear,0,2013-08-25 20:53:00
5:53 PM,82.9,62.1,49,30.20,10.0,SSW,8.1,-,N/A,,Clear,210,2013-08-25 21:53:00
6:53 PM,80.1,62.1,54,30.19,10.0,SSW,5.8,-,N/A,,Clear,200,2013-08-25 22:53:00
7:53 PM,75.9,63.0,64,30.19,10.0,SSW,4.6,-,N/A,,Clear,210,2013-08-25 23:53:00
8:53 PM,69.1,63.0,81,30.20,10.0,SSW,6.9,-,N/A,,Clear,200,2013-08-26 00:53:00
9:53 PM,68.0,62.1,81,30.21,10.0,South,6.9,-,N/A,,Clear,180,2013-08-26 01:53:00
10:53 PM,66.9,61.0,81,30.21,10.0,South,5.8,-,N/A,,Clear,180,2013-08-26 02:53:00
11:53 PM,66.0,60.1,81,30.22,10.0,South,6.9,-,N/A,,Clear,180,2013-08-26 03:53:00